City of Derry Airport

Jump to: basic info | weather | frequencies | runways | comments

Related pages: nearby airports | nearby navaids | notams | map

Basic information (top)

Codes: LDY EGAE
Location: lon 55.042801, lat -7.161110, elev 22 ft / 7 m msl
Status: medium_airport
Scheduled airline service: yes
Links: Wikipedia Mobile

Weather (top)

Current conditions (rec'd 2014/10/31 17:20Z):

EGAE 311720Z 22010KT 9999 -RA FEW008 SCT017 BKN023 15/14 Q1002

Airport forecast for Belfast International Airport 40nm (74km) SE (rec'd 2014/10/31 00:15Z):

TAF TAF EGAA 312310Z 0100/0124 20008KT 9999 FEW012 SCT025 
      TEMPO 0100/0109 BKN009 
      BECMG 0113/0116 16016G26KT 4000 RADZ +RA BKN011 
      BECMG 0116/0119 9999 NSW FEW015 SCT025 
      BECMG 0118/0121 20011KT

Frequencies (top)

Verify before use: may be inaccurate or out of date.

APP: 123.625 MHz (APP)
TWR: 134.15 MHz (TWR)

Runways (top)

02/20: 3,955 x 148 ft (1,205 x 45 m) — paved — lighted — threshold 02 displaced 435 ft (133 m)

08/26: 6,076 x 147 ft (1,852 x 45 m) — paved — lighted — threshold 08 displaced 433 ft (132 m)

Latest comments (top)

Excellant airport: You have full services ils , fuel car ... [read]

More... (top)

See also NOTAMs and nearby airports and navaids, or visit the City of Derry Airport page at the main OurAirports website..